User: anonymous   Login
Location: Unspecified
(0.0000°N, 0.0000°E)
Time: 20:50:10
(UTC+01:00)
Language:

ARIANE 5 R/B - Orbit

View from above orbital plane
View from above orbital plane
View from above satellite
View from above satellite

Ground track
Ground track

The orbit data is extracted from the following two-line orbital elements,

1 28379U 04027B   17344.67712580 -.00000172 +00000-0 +26013-2 0  9992
2 28379 006.8593 272.0420 7301026 186.8877 022.6824 02.07929015101813
Epoch (UTC): 10 December 2017 16:15:03
Eccentricity: 0.7301026
inclination: 6.8593°
perigee height: 620 km
apogee height: 38482 km
right ascension of ascending node: 272.0420°
argument of perigee: 186.8877°
revolutions per day: 2.07929015
mean anomaly at epoch: 22.6824°
orbit number at epoch: 10181

The dashed part of the orbit path shows where the satellite is in the earth's shadow,  

DLR